Back to catalog

OPS 4682 DEB

AlivePO
NORAD 38425·DEBRIS·🇺🇸 United States

Launched Apr 3, 1965 from Vandenberg Space Force Base

Loading…

Next Passes (next 24 hours)

TLE

FreshSource: Space-Track

Epoch: Sep 14, 2026, 07:06 UTC

1 38425U 65027EE  26257.29595578  .00000187  00000-0  63875-3 0  9992
2 38425  90.2519   9.7125 0034387 356.2794   3.8065 12.95256038674094

Track OPS 4682 DEB in real time with AllMySat

Download on the App Store